Volver al catálogo

FALCON HEAVY R/B

ActivoMEO
NORAD 56373·ROCKET BODY·🇺🇸 United States

Lanzado May 1, 2023 desde Cape Canaveral Space Force Station

Loading…

Próximos Pases (próximas 24 horas)

TLE

ActualizadoSource: Space-Track

Época: Sep 14, 2026, 14:38 UTC

1 56373U 23060D   26257.60980690 -.00000038  00000-0  00000-0 0  9997
2 56373   3.0567  77.1448 0014543 177.0126 134.1963  1.04742464 12900

Sigue FALCON HEAVY R/B en tiempo real con AllMySat

Download on the App Store